Grand Junction, CO

4:06 PM MDT on May 24, 2018 (GMT -0600)
Walker

Weather History for KGJT - August, 2014

Change the Weather History Date:

Thursday, August 28, 2014

  Actual Average Record
Temperature  
Mean Temperature 67 °F 73 °F  
Max Temperature 77 °F 87 °F 97 °F (1948)
Min Temperature 56 °F 59 °F 48 °F (1964)
Degree Days  
Heating Degree Days 0 0  
Month to date heating degree days 5 0  
Since 1 June heating degree days 24 23  
Since 1 July heating degree days 5 1  
Cooling Degree Days 2 8  
Month to date cooling degree days 202 304  
Year to date cooling degree days 909 996  
Since 1 June cooling degree days 850 945  
Growing Degree Days 16 (Base 50)    
Moisture  
Dew Point 53 °F    
Average Humidity 66    
Maximum Humidity 93    
Minimum Humidity 38    
Precipitation  
Precipitation 0.01 in 0.03 in 0.47 in (1939)
Month to date precipitation 3.16 0.84  
Year to date precipitation 8.09 5.74  
Snow  
Snow 0.00 in 0.00 in 0.00 in (2002)
Month to date snowfall 0.0 0.0  
Since 1 June snowfall 0.0 0.0  
Since 1 July snowfall 0.0 0.0  
Snow Depth 0.00 in    
Sea Level Pressure  
Sea Level Pressure 30.07 in    
Wind  
Wind Speed 5 mph (SE)    
Max Wind Speed 12 mph    
Max Gust Speed 14 mph    
Visibility 10 miles    
Events Rain    
T = Trace of Precipitation, MM = Missing Value Source: NWS Daily Summary

Daily Weather History Graph

Daily Weather History Graph

Search for Another Location

Airport or City:

Astronomy

Aug. 28, 2014 Rise Set
Actual Time 6:39 AM MDT 7:50 PM MDT
Civil Twilight 6:11 AM MDT 8:18 PM MDT
Nautical Twilight 5:38 AM MDT 8:51 PM MDT
Astronomical Twilight 5:04 AM MDT 9:25 PM MDT
Moon 9:32 AM MDT (8/28) 9:18 PM MDT (8/28)
Length of Visible Light 14h 06m
Length of Day
13h 11m
Waxing Crescent, 9% of the Moon is Illuminated
Aug 28
Waxing Crescent
Sep 2
First Quarter
Sep 8
Full
Sep 15
Last Quarter
Sep 24
New

Hourly Weather History & Observations

Time (MDT) Temp. Dew Point Humidity Pressure Visibility Wind Dir Wind Speed Gust Speed Precip Events Conditions
12:53 AM 57.9 °F 55.9 °F 93% 30.13 in 10.0 mi Calm Calm - N/A   Overcast
1:53 AM 57.0 °F 55.9 °F 96% 30.10 in 10.0 mi East 3.5 mph - 0.00 in   Mostly Cloudy
2:53 AM 57.0 °F 55.9 °F 96% 30.09 in 10.0 mi Calm Calm - N/A   Overcast
3:53 AM 55.9 °F 54.0 °F 93% 30.09 in 10.0 mi ESE 5.8 mph - N/A   Mostly Cloudy
4:53 AM 55.9 °F 55.0 °F 97% 30.09 in 10.0 mi East 4.6 mph - 0.01 in Rain Light Rain
5:53 AM 57.0 °F 55.0 °F 93% 30.10 in 10.0 mi ESE 4.6 mph - 0.00 in   Overcast
6:53 AM 57.0 °F 55.0 °F 93% 30.12 in 10.0 mi SSE 4.6 mph - 0.00 in   Overcast
7:53 AM 57.0 °F 55.0 °F 93% 30.14 in 10.0 mi East 3.5 mph - N/A   Overcast
8:53 AM 59.0 °F 53.6 °F 82% 30.26 in 10.0 mi SE 5.8 mph - N/A   Mostly Cloudy
9:53 AM 61.0 °F 53.1 °F 75% 30.14 in 10.0 mi Calm Calm - N/A   Scattered Clouds
10:53 AM 64.9 °F 53.1 °F 65% 30.13 in 10.0 mi SE 5.8 mph - N/A   Clear
11:53 AM 68.0 °F 53.1 °F 59% 30.12 in 10.0 mi ESE 6.9 mph - N/A   Clear
12:53 PM 69.1 °F 51.1 °F 53% 30.09 in 10.0 mi SSW 5.8 mph - N/A   Partly Cloudy
1:53 PM 71.1 °F 50.0 °F 47% 30.07 in 10.0 mi North - - N/A   Mostly Cloudy
2:53 PM 73.9 °F 51.1 °F 45% 30.04 in 10.0 mi SE 8.1 mph - N/A   Mostly Cloudy
3:53 PM 75.0 °F 52.0 °F 44% 30.01 in 10.0 mi Variable 5.8 mph - N/A   Mostly Cloudy
4:53 PM 75.9 °F 50.0 °F 40% 29.99 in 10.0 mi ESE 5.8 mph - N/A   Partly Cloudy
5:53 PM 75.9 °F 48.9 °F 38% 29.98 in 10.0 mi South 4.6 mph - N/A   Scattered Clouds
6:53 PM 73.9 °F 48.0 °F 40% 29.97 in 10.0 mi South 4.6 mph - N/A   Overcast
7:53 PM 71.1 °F 54.0 °F 55% 29.98 in 10.0 mi Calm Calm - N/A   Clear
8:53 PM 66.0 °F 55.9 °F 70% 30.00 in 10.0 mi ENE 5.8 mph - N/A   Mostly Cloudy
9:53 PM 62.1 °F 55.9 °F 80% 30.01 in 10.0 mi SE 5.8 mph - N/A   Clear
10:53 PM 62.1 °F 54.0 °F 75% 30.00 in 10.0 mi ESE 6.9 mph - N/A   Clear
11:53 PM 59.0 °F 54.0 °F 83% 30.01 in 10.0 mi East 8.1 mph - N/A   Clear